Year,Month,Day,Hour,Minute,Value (Times are PST for temperature in C)
2005,05,05,00,00,13.00
2005,05,05,00,01,13.10
2005,05,05,00,02,13.10
2005,05,05,00,03,13.10
2005,05,05,00,04,13.00
2005,05,05,00,05,13.00
2005,05,05,00,06,12.90
2005,05,05,00,07,12.90
2005,05,05,00,08,12.90
2005,05,05,00,09,12.90
2005,05,05,00,10,12.90
2005,05,05,00,11,12.80
2005,05,05,00,12,12.80
2005,05,05,00,13,12.80
2005,05,05,00,14,12.80
2005,05,05,00,15,12.80
2005,05,05,00,21,12.80
2005,05,05,00,23,12.80
2005,05,05,00,24,12.70
2005,05,05,00,25,12.60
2005,05,05,00,26,12.50
2005,05,05,00,27,12.30
2005,05,05,00,28,12.20
2005,05,05,00,29,12.10
2005,05,05,00,30,12.00
2005,05,05,00,31,11.90
2005,05,05,00,32,11.80
2005,05,05,00,33,11.80
2005,05,05,00,34,11.70
2005,05,05,00,35,11.70
2005,05,05,00,36,11.70
2005,05,05,00,37,11.70
2005,05,05,00,38,11.60
2005,05,05,00,39,11.60
2005,05,05,00,40,11.70
2005,05,05,00,41,11.70
2005,05,05,00,42,11.80
2005,05,05,00,43,11.80
2005,05,05,00,44,11.80
2005,05,05,00,45,11.90
2005,05,05,00,46,11.90
2005,05,05,00,47,11.90
2005,05,05,00,48,11.90
2005,05,05,00,49,11.90
2005,05,05,00,50,11.80
2005,05,05,00,51,11.80
2005,05,05,00,52,11.80
2005,05,05,00,53,11.80
2005,05,05,00,54,11.80
2005,05,05,00,55,11.80
2005,05,05,00,56,11.80
2005,05,05,00,57,11.80
2005,05,05,00,58,11.80
2005,05,05,00,59,12.00
2005,05,05,01,00,12.10
2005,05,05,01,01,12.20
2005,05,05,01,02,12.20
2005,05,05,01,03,12.20
2005,05,05,01,04,12.20
2005,05,05,01,05,12.30
2005,05,05,01,06,12.30
2005,05,05,01,07,12.40
2005,05,05,01,08,12.40
2005,05,05,01,09,12.40
2005,05,05,01,10,12.40
2005,05,05,01,11,12.40
2005,05,05,01,12,12.40
2005,05,05,01,13,12.40
2005,05,05,01,14,12.40
2005,05,05,01,15,12.50
2005,05,05,01,16,12.50
2005,05,05,01,17,12.60
2005,05,05,01,18,12.60
2005,05,05,01,19,12.60
2005,05,05,01,20,12.60
2005,05,05,01,21,12.60
2005,05,05,01,22,12.60
2005,05,05,01,23,12.60
2005,05,05,01,24,12.60
2005,05,05,01,25,12.60
2005,05,05,01,26,12.60
2005,05,05,01,27,12.60
2005,05,05,01,28,12.50
2005,05,05,01,29,12.50
2005,05,05,01,30,12.50
2005,05,05,01,31,12.40
2005,05,05,01,32,12.40
2005,05,05,01,33,12.30
2005,05,05,01,34,12.30
2005,05,05,01,35,12.30
2005,05,05,01,36,12.30
2005,05,05,01,37,12.30
2005,05,05,01,38,12.30
2005,05,05,01,39,12.30
2005,05,05,01,40,12.30
2005,05,05,01,41,12.30
2005,05,05,01,42,12.30
2005,05,05,01,43,12.30
2005,05,05,01,44,12.30
2005,05,05,01,45,12.30
2005,05,05,01,46,12.30
2005,05,05,01,47,12.30
2005,05,05,01,48,12.20
2005,05,05,01,49,12.20
2005,05,05,01,50,12.20
2005,05,05,01,51,12.10
2005,05,05,01,52,12.10
2005,05,05,01,53,12.10
2005,05,05,01,54,12.10
2005,05,05,01,55,12.20
2005,05,05,01,56,12.20
2005,05,05,01,57,12.30
2005,05,05,01,58,12.30
2005,05,05,01,59,12.30
2005,05,05,02,00,12.30
2005,05,05,02,01,12.40
2005,05,05,02,02,12.40
2005,05,05,02,03,12.40
2005,05,05,02,04,12.30
2005,05,05,02,05,12.30
2005,05,05,02,06,12.20
2005,05,05,02,07,12.20
2005,05,05,02,08,12.20
2005,05,05,02,09,12.20
2005,05,05,02,10,12.30
2005,05,05,02,11,12.30
2005,05,05,02,12,12.20
2005,05,05,02,13,12.20
2005,05,05,02,14,12.20
2005,05,05,02,15,12.10
2005,05,05,02,16,12.10
2005,05,05,02,17,12.10
2005,05,05,02,18,12.00
2005,05,05,02,19,12.00
2005,05,05,02,20,12.00
2005,05,05,02,21,12.00
2005,05,05,02,22,12.10
2005,05,05,02,23,12.00
2005,05,05,02,24,12.00
2005,05,05,02,25,11.90
2005,05,05,02,26,11.90
2005,05,05,02,27,11.90
2005,05,05,02,28,11.90
2005,05,05,02,29,11.80
2005,05,05,02,30,11.90
2005,05,05,02,31,11.80
2005,05,05,02,32,11.90
2005,05,05,02,33,11.90
2005,05,05,02,34,11.90
2005,05,05,02,35,11.90
2005,05,05,02,36,11.80
2005,05,05,02,37,11.90
2005,05,05,02,38,11.90
2005,05,05,02,39,12.00
2005,05,05,02,40,12.00
2005,05,05,02,41,12.00
2005,05,05,02,42,12.00
2005,05,05,02,43,12.00
2005,05,05,02,44,11.90
2005,05,05,02,45,11.90
2005,05,05,02,46,11.90
2005,05,05,02,47,11.90
2005,05,05,02,48,11.90
2005,05,05,02,49,11.90
2005,05,05,02,50,11.90
2005,05,05,02,51,11.90
2005,05,05,02,52,11.90
2005,05,05,02,53,11.90
2005,05,05,02,54,11.90
2005,05,05,02,55,11.90
2005,05,05,02,56,11.90
2005,05,05,02,57,11.90
2005,05,05,02,58,11.90
2005,05,05,02,59,12.00
2005,05,05,03,00,12.00
2005,05,05,03,01,12.00
2005,05,05,03,02,11.90
2005,05,05,03,03,11.80
2005,05,05,03,04,11.80
2005,05,05,03,05,11.80
2005,05,05,03,06,11.70
2005,05,05,03,07,11.60
2005,05,05,03,08,11.60
2005,05,05,03,09,11.60
2005,05,05,03,10,11.50
2005,05,05,03,11,11.40
2005,05,05,03,12,11.30
2005,05,05,03,13,11.40
2005,05,05,03,14,11.30
2005,05,05,03,15,11.30
2005,05,05,03,16,11.30
2005,05,05,03,17,11.20
2005,05,05,03,18,11.20
2005,05,05,03,19,11.20
2005,05,05,03,20,11.30
2005,05,05,03,21,11.20
2005,05,05,03,22,11.20
2005,05,05,03,23,11.20
2005,05,05,03,24,11.20
2005,05,05,03,25,11.30
2005,05,05,03,26,11.30
2005,05,05,03,27,11.30
2005,05,05,03,28,11.20
2005,05,05,03,29,11.20
2005,05,05,03,30,11.20
2005,05,05,03,31,11.20
2005,05,05,03,32,11.30
2005,05,05,03,33,11.30
2005,05,05,03,34,11.30
2005,05,05,03,35,11.30
2005,05,05,03,36,11.30
2005,05,05,03,37,11.30
2005,05,05,03,38,11.30
2005,05,05,03,39,11.30
2005,05,05,03,40,11.30
2005,05,05,03,41,11.20
2005,05,05,03,42,11.20
2005,05,05,03,43,11.20
2005,05,05,03,44,11.30
2005,05,05,03,45,11.30
2005,05,05,03,46,11.30
2005,05,05,03,47,11.30
2005,05,05,03,48,11.30
2005,05,05,03,49,11.20
2005,05,05,03,50,11.20
2005,05,05,03,51,11.20
2005,05,05,03,52,11.20
2005,05,05,03,53,11.20
2005,05,05,03,54,11.10
2005,05,05,03,55,11.10
2005,05,05,03,56,11.10
2005,05,05,03,57,11.10
2005,05,05,03,58,11.10
2005,05,05,03,59,11.10
2005,05,05,04,00,11.10
2005,05,05,04,01,11.10
2005,05,05,04,02,11.10
2005,05,05,04,03,11.10
2005,05,05,04,04,11.20
2005,05,05,04,05,11.20
2005,05,05,04,06,11.20
2005,05,05,04,07,11.10
2005,05,05,04,08,11.10
2005,05,05,04,09,11.10
2005,05,05,04,10,11.10
2005,05,05,04,11,11.10
2005,05,05,04,12,11.10
2005,05,05,04,13,11.10
2005,05,05,04,14,11.10
2005,05,05,04,15,11.10
2005,05,05,04,16,11.10
2005,05,05,04,17,11.10
2005,05,05,04,18,11.10
2005,05,05,04,19,11.10
2005,05,05,04,20,11.10
2005,05,05,04,21,11.10
2005,05,05,04,22,11.10
2005,05,05,04,23,11.10
2005,05,05,04,24,11.10
2005,05,05,04,25,11.00
2005,05,05,04,26,11.00
2005,05,05,04,27,11.00
2005,05,05,04,28,11.10
2005,05,05,04,29,11.10
2005,05,05,04,30,11.10
2005,05,05,04,31,11.10
2005,05,05,04,32,11.10
2005,05,05,04,33,11.10
2005,05,05,04,34,10.90
2005,05,05,04,35,10.90
2005,05,05,04,36,10.90
2005,05,05,04,37,10.90
2005,05,05,04,38,10.90
2005,05,05,04,39,10.90
2005,05,05,04,40,10.90
2005,05,05,04,41,11.00
2005,05,05,04,42,11.10
2005,05,05,04,43,11.10
2005,05,05,04,44,11.10
2005,05,05,04,45,11.10
2005,05,05,04,46,11.10
2005,05,05,04,47,11.20
2005,05,05,04,48,11.20
2005,05,05,04,49,11.20
2005,05,05,04,50,11.20
2005,05,05,04,51,11.20
2005,05,05,04,52,11.10
2005,05,05,04,53,11.10
2005,05,05,04,54,11.10
2005,05,05,04,55,11.10
2005,05,05,04,56,11.10
2005,05,05,04,57,11.10
2005,05,05,04,58,11.10
2005,05,05,04,59,11.10
2005,05,05,05,00,11.20
2005,05,05,05,01,11.20
2005,05,05,05,02,11.30
2005,05,05,05,03,11.30
2005,05,05,05,04,11.30
2005,05,05,05,05,11.20
2005,05,05,05,06,11.20
2005,05,05,05,07,11.20
2005,05,05,05,08,11.20
2005,05,05,05,09,11.20
2005,05,05,05,10,11.20
2005,05,05,05,11,11.20
2005,05,05,05,12,11.20
2005,05,05,05,13,11.20
2005,05,05,05,14,11.30
2005,05,05,05,15,11.30
2005,05,05,05,16,11.30
2005,05,05,05,17,11.30
2005,05,05,05,18,11.30
2005,05,05,05,19,11.20
2005,05,05,05,20,11.20
2005,05,05,05,21,11.20
2005,05,05,05,22,11.20
2005,05,05,05,23,11.20
2005,05,05,05,24,11.20
2005,05,05,05,25,11.30
2005,05,05,05,26,11.30
2005,05,05,05,27,11.40
2005,05,05,05,28,11.40
2005,05,05,05,29,11.40
2005,05,05,05,30,11.40
2005,05,05,05,31,11.40
2005,05,05,05,32,11.40
2005,05,05,05,33,11.40
2005,05,05,05,34,11.40
2005,05,05,05,35,11.40
2005,05,05,05,36,11.40
2005,05,05,05,37,11.40
2005,05,05,05,38,11.40
2005,05,05,05,39,11.40
2005,05,05,05,40,11.40
2005,05,05,05,41,11.40
2005,05,05,05,42,11.40
2005,05,05,05,43,11.40
2005,05,05,05,44,11.40
2005,05,05,05,45,11.40
2005,05,05,05,46,11.50
2005,05,05,05,47,11.50
2005,05,05,05,48,11.50
2005,05,05,05,49,11.40
2005,05,05,05,50,11.40
2005,05,05,05,51,11.40
2005,05,05,05,52,11.30
2005,05,05,05,53,11.20
2005,05,05,05,54,11.20
2005,05,05,05,55,11.20
2005,05,05,05,56,11.20
2005,05,05,05,57,11.30
2005,05,05,05,58,11.30
2005,05,05,05,59,11.30
2005,05,05,06,00,11.30
2005,05,05,06,01,11.30
2005,05,05,06,02,11.30
2005,05,05,06,03,11.30
2005,05,05,06,04,11.30
2005,05,05,06,05,11.30
2005,05,05,06,06,11.30
2005,05,05,06,07,11.30
2005,05,05,06,08,11.20
2005,05,05,06,09,11.20
2005,05,05,06,10,11.30
2005,05,05,06,11,11.30
2005,05,05,06,12,11.30
2005,05,05,06,13,11.30
2005,05,05,06,14,11.20
2005,05,05,06,15,11.30
2005,05,05,06,16,11.30
2005,05,05,06,17,11.30
2005,05,05,06,18,11.40
2005,05,05,06,19,11.40
2005,05,05,06,20,11.40
2005,05,05,06,21,11.40
2005,05,05,06,22,11.40
2005,05,05,06,23,11.40
2005,05,05,06,24,11.40
2005,05,05,06,25,11.30
2005,05,05,06,26,11.30
2005,05,05,06,27,11.30
2005,05,05,06,28,11.30
2005,05,05,06,29,11.40
2005,05,05,06,30,11.40
2005,05,05,06,31,11.40
2005,05,05,06,32,11.40
2005,05,05,06,33,11.40
2005,05,05,06,34,11.40
2005,05,05,06,35,11.40
2005,05,05,06,36,11.40
2005,05,05,06,37,11.40
2005,05,05,06,38,11.40
2005,05,05,06,39,11.40
2005,05,05,06,40,11.40
2005,05,05,06,41,11.40
2005,05,05,06,42,11.40
2005,05,05,06,43,11.30
2005,05,05,06,44,11.30
2005,05,05,06,45,11.30
2005,05,05,06,46,11.40
2005,05,05,06,47,11.40
2005,05,05,06,48,11.40
2005,05,05,06,49,11.40
2005,05,05,06,50,11.40
2005,05,05,06,51,11.40
2005,05,05,06,52,11.50
2005,05,05,06,53,11.60
2005,05,05,06,54,11.60
2005,05,05,06,55,11.60
2005,05,05,06,56,11.70
2005,05,05,06,57,11.60
2005,05,05,06,58,11.70
2005,05,05,06,59,11.70
2005,05,05,07,00,11.80
2005,05,05,07,01,11.80
2005,05,05,07,02,11.80
2005,05,05,07,03,11.80
2005,05,05,07,04,11.80
2005,05,05,07,05,11.90
2005,05,05,07,06,11.90
2005,05,05,07,07,11.90
2005,05,05,07,08,11.90
2005,05,05,07,09,11.90
2005,05,05,07,10,12.00
2005,05,05,07,11,12.00
2005,05,05,07,12,12.10
2005,05,05,07,13,12.10
2005,05,05,07,14,12.10
2005,05,05,07,15,12.00
2005,05,05,07,16,12.00
2005,05,05,07,17,12.00
2005,05,05,07,18,12.00
2005,05,05,07,19,11.90
2005,05,05,07,20,11.90
2005,05,05,07,21,11.90
2005,05,05,07,22,11.90
2005,05,05,07,23,12.00
2005,05,05,07,24,12.00
2005,05,05,07,25,12.00
2005,05,05,07,26,12.00
2005,05,05,07,27,12.00
2005,05,05,07,28,12.10
2005,05,05,07,29,12.10
2005,05,05,07,30,12.10
2005,05,05,07,31,12.10
2005,05,05,07,32,12.10
2005,05,05,07,33,12.00
2005,05,05,07,34,12.00
2005,05,05,07,35,12.00
2005,05,05,07,36,12.00
2005,05,05,07,37,12.00
2005,05,05,07,38,12.00
2005,05,05,07,39,12.00
2005,05,05,07,40,12.00
2005,05,05,07,41,12.00
2005,05,05,07,42,12.10
2005,05,05,07,43,12.10
2005,05,05,07,44,12.10
2005,05,05,07,45,12.10
2005,05,05,07,46,12.20
2005,05,05,07,47,12.20
2005,05,05,07,48,12.30
2005,05,05,07,49,12.30
2005,05,05,07,50,12.30
2005,05,05,07,51,12.20
2005,05,05,07,52,12.30
2005,05,05,07,53,12.30
2005,05,05,07,54,12.30
2005,05,05,07,55,12.40
2005,05,05,07,56,12.40
2005,05,05,07,57,12.50
2005,05,05,07,58,12.50
2005,05,05,07,59,12.60
2005,05,05,08,00,12.70
2005,05,05,08,01,12.70
2005,05,05,08,02,12.70
2005,05,05,08,03,12.80
2005,05,05,08,04,12.80
2005,05,05,08,05,12.90
2005,05,05,08,06,12.90
2005,05,05,08,07,12.80
2005,05,05,08,08,12.70
2005,05,05,08,09,12.70
2005,05,05,08,10,12.70
2005,05,05,08,11,12.70
2005,05,05,08,12,12.80
2005,05,05,08,13,12.80
2005,05,05,08,14,12.80
2005,05,05,08,15,12.80
2005,05,05,08,16,12.80
2005,05,05,08,17,12.90
2005,05,05,08,18,13.00
2005,05,05,08,19,13.00
2005,05,05,08,20,13.00
2005,05,05,08,21,12.90
2005,05,05,08,22,13.00
2005,05,05,08,23,13.00
2005,05,05,08,24,13.10
2005,05,05,08,25,13.10
2005,05,05,08,26,13.10
2005,05,05,08,27,13.10
2005,05,05,08,28,13.10
2005,05,05,08,29,13.20
2005,05,05,08,30,13.20
2005,05,05,08,31,13.30
2005,05,05,08,32,13.30
2005,05,05,08,33,13.30
2005,05,05,08,34,13.30
2005,05,05,08,35,13.40
2005,05,05,08,36,13.40
2005,05,05,08,37,13.30
2005,05,05,08,38,13.40
2005,05,05,08,39,13.30
2005,05,05,08,40,13.30
2005,05,05,08,41,13.30
2005,05,05,08,42,13.30
2005,05,05,08,43,13.30
2005,05,05,08,44,13.30
2005,05,05,08,45,13.30
2005,05,05,08,46,13.30
2005,05,05,08,47,13.40
2005,05,05,08,48,13.50
2005,05,05,08,49,13.60
2005,05,05,08,50,13.60
2005,05,05,08,51,13.60
2005,05,05,08,52,13.60
2005,05,05,08,53,13.50
2005,05,05,08,54,13.50
2005,05,05,08,55,13.50
2005,05,05,08,56,13.60
2005,05,05,08,57,13.60
2005,05,05,08,58,13.70
2005,05,05,08,59,13.70
2005,05,05,09,00,13.80
2005,05,05,09,01,13.80
2005,05,05,09,02,13.80
2005,05,05,09,03,13.90
2005,05,05,09,04,13.90
2005,05,05,09,05,13.90
2005,05,05,09,06,13.90
2005,05,05,09,07,13.90
2005,05,05,09,08,13.90
2005,05,05,09,09,13.90
2005,05,05,09,10,13.90
2005,05,05,09,11,13.90
2005,05,05,09,12,13.90
2005,05,05,09,13,13.90
2005,05,05,09,14,13.90
2005,05,05,09,15,13.90
2005,05,05,09,16,13.90
2005,05,05,09,17,13.90
2005,05,05,09,18,13.90
2005,05,05,09,19,13.90
2005,05,05,09,20,13.90
2005,05,05,09,21,13.90
2005,05,05,09,22,13.90
2005,05,05,09,23,13.90
2005,05,05,09,24,13.90
2005,05,05,09,25,13.90
2005,05,05,09,26,13.90
2005,05,05,09,27,13.80
2005,05,05,09,28,13.80
2005,05,05,09,29,13.90
2005,05,05,09,30,13.90
2005,05,05,09,31,13.90
2005,05,05,09,32,14.00
2005,05,05,09,33,14.00
2005,05,05,09,34,14.00
2005,05,05,09,35,14.10
2005,05,05,09,36,14.10
2005,05,05,09,37,14.10
2005,05,05,09,38,14.20
2005,05,05,09,39,14.20
2005,05,05,09,40,14.20
2005,05,05,09,41,14.20
2005,05,05,09,42,14.30
2005,05,05,09,43,14.30
2005,05,05,09,44,14.40
2005,05,05,09,45,14.50
2005,05,05,09,46,14.50
2005,05,05,09,47,14.50
2005,05,05,09,48,14.50
2005,05,05,09,49,14.50
2005,05,05,09,50,14.40
2005,05,05,09,51,14.40
2005,05,05,09,52,14.40
2005,05,05,09,53,14.50
2005,05,05,09,54,14.50
2005,05,05,09,55,14.40
2005,05,05,09,56,14.30
2005,05,05,09,57,14.30
2005,05,05,09,58,14.50
2005,05,05,09,59,14.50
2005,05,05,10,00,14.60
2005,05,05,10,01,14.60
2005,05,05,10,02,14.50
2005,05,05,10,03,14.40
2005,05,05,10,04,14.40
2005,05,05,10,05,14.40
2005,05,05,10,06,14.50
2005,05,05,10,07,14.40
2005,05,05,10,08,14.40
2005,05,05,10,09,14.40
2005,05,05,10,10,14.40
2005,05,05,10,11,14.40
2005,05,05,10,12,14.40
2005,05,05,10,13,14.40
2005,05,05,10,14,14.30
2005,05,05,10,15,14.20
2005,05,05,10,16,14.20
2005,05,05,10,17,14.10
2005,05,05,10,18,14.10
2005,05,05,10,19,14.20
2005,05,05,10,20,14.20
2005,05,05,10,21,14.20
2005,05,05,10,22,14.10
2005,05,05,10,23,14.20
2005,05,05,10,24,14.20
2005,05,05,10,25,14.30
2005,05,05,10,26,14.40
2005,05,05,10,27,14.50
2005,05,05,10,28,14.50
2005,05,05,10,29,14.50
2005,05,05,10,30,14.60
2005,05,05,10,31,14.60
2005,05,05,10,32,14.70
2005,05,05,10,33,14.70
2005,05,05,10,34,14.70
2005,05,05,10,35,14.70
2005,05,05,10,36,14.80
2005,05,05,10,37,14.90
2005,05,05,10,38,15.00
2005,05,05,10,39,15.00
2005,05,05,10,40,15.10
2005,05,05,10,41,15.00
2005,05,05,10,42,15.00
2005,05,05,10,43,15.00
2005,05,05,10,44,15.00
2005,05,05,10,45,15.10
2005,05,05,10,46,15.10
2005,05,05,10,47,15.20
2005,05,05,10,48,15.30
2005,05,05,10,49,15.30
2005,05,05,10,50,15.30
2005,05,05,10,51,15.30
2005,05,05,10,52,15.30
2005,05,05,10,53,15.40
2005,05,05,10,54,15.50
2005,05,05,10,55,15.50
2005,05,05,10,56,15.40
2005,05,05,10,57,15.30
2005,05,05,10,58,15.30
2005,05,05,10,59,15.30
2005,05,05,11,00,15.30
2005,05,05,11,01,15.20
2005,05,05,11,02,15.20
2005,05,05,11,03,15.30
2005,05,05,11,04,15.40
2005,05,05,11,05,15.50
2005,05,05,11,06,15.60
2005,05,05,11,07,15.70
2005,05,05,11,08,15.80
2005,05,05,11,09,15.80
2005,05,05,11,10,16.00
2005,05,05,11,11,16.10
2005,05,05,11,12,16.10
2005,05,05,11,13,16.10
2005,05,05,11,14,16.10
2005,05,05,11,15,16.10
2005,05,05,11,16,16.10
2005,05,05,11,17,16.10
2005,05,05,11,18,16.10
2005,05,05,11,19,16.10
2005,05,05,11,20,16.10
2005,05,05,11,21,16.10
2005,05,05,11,22,16.10
2005,05,05,11,23,16.10
2005,05,05,11,24,16.10
2005,05,05,11,25,16.20
2005,05,05,11,26,16.20
2005,05,05,11,27,16.30
2005,05,05,11,28,16.30
2005,05,05,11,29,16.40
2005,05,05,11,30,16.40
2005,05,05,11,31,16.40
2005,05,05,11,32,16.30
2005,05,05,11,33,16.20
2005,05,05,11,34,16.10
2005,05,05,11,35,16.10
2005,05,05,11,36,16.10
2005,05,05,11,37,16.10
2005,05,05,11,38,16.00
2005,05,05,11,39,15.90
2005,05,05,11,40,15.80
2005,05,05,11,41,15.90
2005,05,05,11,42,16.10
2005,05,05,11,43,16.20
2005,05,05,11,44,16.20
2005,05,05,11,45,16.30
2005,05,05,11,46,16.30
2005,05,05,11,47,16.40
2005,05,05,11,48,16.60
2005,05,05,11,49,16.70
2005,05,05,11,50,16.60
2005,05,05,11,51,16.70
2005,05,05,11,52,16.70
2005,05,05,11,53,16.80
2005,05,05,11,54,16.80
2005,05,05,11,55,16.80
2005,05,05,11,56,16.70
2005,05,05,11,57,16.60
2005,05,05,11,58,16.50
2005,05,05,11,59,16.70
2005,05,05,12,00,16.90
2005,05,05,12,01,17.00
2005,05,05,12,02,17.10
2005,05,05,12,03,17.10
2005,05,05,12,04,17.20
2005,05,05,12,05,17.30
2005,05,05,12,06,17.40
2005,05,05,12,07,17.40
2005,05,05,12,08,17.50
2005,05,05,12,09,17.50
2005,05,05,12,10,17.50
2005,05,05,12,11,17.50
2005,05,05,12,12,17.60
2005,05,05,12,13,17.70
2005,05,05,12,14,17.70
2005,05,05,12,15,17.80
2005,05,05,12,16,18.00
2005,05,05,12,17,18.10
2005,05,05,12,18,18.10
2005,05,05,12,19,18.10
2005,05,05,12,20,18.10
2005,05,05,12,21,18.10
2005,05,05,12,22,18.20
2005,05,05,12,23,18.30
2005,05,05,12,24,18.30
2005,05,05,12,25,18.10
2005,05,05,12,26,17.80
2005,05,05,12,27,17.70
2005,05,05,12,28,17.70
2005,05,05,12,29,17.70
2005,05,05,12,30,17.60
2005,05,05,12,31,17.40
2005,05,05,12,32,17.20
2005,05,05,12,33,17.10
2005,05,05,12,34,17.10
2005,05,05,12,35,17.10
2005,05,05,12,36,17.10
2005,05,05,12,37,17.20
2005,05,05,12,38,17.40
2005,05,05,12,39,17.50
2005,05,05,12,40,17.70
2005,05,05,12,41,17.70
2005,05,05,12,42,17.50
2005,05,05,12,43,17.50
2005,05,05,12,44,17.30
2005,05,05,12,45,17.40
2005,05,05,12,46,17.60
2005,05,05,12,47,17.80
2005,05,05,12,48,17.90
2005,05,05,12,49,17.80
2005,05,05,12,50,17.90
2005,05,05,12,51,17.90
2005,05,05,12,52,18.00
2005,05,05,12,53,18.10
2005,05,05,12,54,18.20
2005,05,05,12,55,18.20
2005,05,05,12,56,18.30
2005,05,05,12,57,18.50
2005,05,05,12,58,18.60
2005,05,05,12,59,18.70
2005,05,05,13,00,18.70
2005,05,05,13,01,18.70
2005,05,05,13,02,18.60
2005,05,05,13,03,18.60
2005,05,05,13,04,18.60
2005,05,05,13,05,18.60
2005,05,05,13,06,18.40
2005,05,05,13,07,18.50
2005,05,05,13,08,18.30
2005,05,05,13,09,18.10
2005,05,05,13,10,18.00
2005,05,05,13,11,18.10
2005,05,05,13,12,18.30
2005,05,05,13,13,18.50
2005,05,05,13,14,18.80
2005,05,05,13,15,18.90
2005,05,05,13,16,18.90
2005,05,05,13,17,19.00
2005,05,05,13,18,19.00
2005,05,05,13,19,18.70
2005,05,05,13,20,18.40
2005,05,05,13,21,18.30
2005,05,05,13,22,18.40
2005,05,05,13,23,18.50
2005,05,05,13,24,18.50
2005,05,05,13,25,18.40
2005,05,05,13,26,18.20
2005,05,05,13,27,18.00
2005,05,05,13,28,17.90
2005,05,05,13,29,17.90
2005,05,05,13,30,17.90
2005,05,05,13,31,17.90
2005,05,05,13,32,17.90
2005,05,05,13,33,17.90
2005,05,05,13,34,17.90
2005,05,05,13,35,17.90
2005,05,05,13,36,17.90
2005,05,05,13,37,17.90
2005,05,05,13,38,18.00
2005,05,05,13,39,18.00
2005,05,05,13,40,17.90
2005,05,05,13,41,18.00
2005,05,05,13,42,18.00
2005,05,05,13,43,18.10
2005,05,05,13,44,18.00
2005,05,05,13,45,18.10
2005,05,05,13,46,18.20
2005,05,05,13,47,18.30
2005,05,05,13,48,18.20
2005,05,05,13,49,18.40
2005,05,05,13,50,18.30
2005,05,05,13,51,18.10
2005,05,05,13,52,18.20
2005,05,05,13,53,18.20
2005,05,05,13,54,18.30
2005,05,05,13,55,18.50
2005,05,05,13,56,18.50
2005,05,05,13,57,18.50
2005,05,05,13,58,18.40
2005,05,05,13,59,18.50
2005,05,05,14,00,18.50
2005,05,05,14,01,18.40
2005,05,05,14,02,18.40
2005,05,05,14,03,18.30
2005,05,05,14,04,18.30
2005,05,05,14,05,18.20
2005,05,05,14,06,18.50
2005,05,05,14,07,18.70
2005,05,05,14,08,18.80
2005,05,05,14,09,18.90
2005,05,05,14,10,19.00
2005,05,05,14,11,19.00
2005,05,05,14,12,19.10
2005,05,05,14,13,19.10
2005,05,05,14,14,19.20
2005,05,05,14,15,19.20
2005,05,05,14,16,19.30
2005,05,05,14,17,19.40
2005,05,05,14,18,19.50
2005,05,05,14,19,19.60
2005,05,05,14,20,19.60
2005,05,05,14,21,19.70
2005,05,05,14,22,19.70
2005,05,05,14,23,19.70
2005,05,05,14,24,19.70
2005,05,05,14,25,19.70
2005,05,05,14,26,19.70
2005,05,05,14,27,19.80
2005,05,05,14,28,19.90
2005,05,05,14,29,20.00
2005,05,05,14,30,19.90
2005,05,05,14,31,19.90
2005,05,05,14,32,19.70
2005,05,05,14,33,19.70
2005,05,05,14,34,19.60
2005,05,05,14,35,19.60
2005,05,05,14,36,19.70
2005,05,05,14,37,19.60
2005,05,05,14,38,19.40
2005,05,05,14,39,19.20
2005,05,05,14,40,19.10
2005,05,05,14,41,19.10
2005,05,05,14,42,19.20
2005,05,05,14,43,19.20
2005,05,05,14,44,19.30
2005,05,05,14,45,19.30
2005,05,05,14,46,19.40
2005,05,05,14,47,19.50
2005,05,05,14,48,19.60
2005,05,05,14,49,19.60
2005,05,05,14,50,19.60
2005,05,05,14,51,19.60
2005,05,05,14,52,19.50
2005,05,05,14,53,19.30
2005,05,05,14,54,19.40
2005,05,05,14,55,19.60
2005,05,05,14,56,19.60
2005,05,05,14,57,19.60
2005,05,05,14,58,19.60
2005,05,05,14,59,19.60
2005,05,05,15,00,19.60
2005,05,05,15,01,19.60
2005,05,05,15,02,19.70
2005,05,05,15,03,19.70
2005,05,05,15,04,19.80
2005,05,05,15,05,19.80
2005,05,05,15,06,19.80
2005,05,05,15,07,19.90
2005,05,05,15,08,20.00
2005,05,05,15,09,20.10
2005,05,05,15,10,20.00
2005,05,05,15,11,19.90
2005,05,05,15,12,19.90
2005,05,05,15,13,19.90
2005,05,05,15,14,19.80
2005,05,05,15,15,19.90
2005,05,05,15,16,19.90
2005,05,05,15,17,19.80
2005,05,05,15,18,19.60
2005,05,05,15,19,19.50
2005,05,05,15,20,19.40
2005,05,05,15,21,19.40
2005,05,05,15,22,19.20
2005,05,05,15,23,19.10
2005,05,05,15,24,19.00
2005,05,05,15,25,18.90
2005,05,05,15,26,18.90
2005,05,05,15,27,18.90
2005,05,05,15,28,18.80
2005,05,05,15,29,18.80
2005,05,05,15,30,18.90
2005,05,05,15,31,19.00
2005,05,05,15,32,19.10
2005,05,05,15,33,19.10
2005,05,05,15,34,18.90
2005,05,05,15,35,18.90
2005,05,05,15,36,18.90
2005,05,05,15,37,18.90
2005,05,05,15,38,19.10
2005,05,05,15,39,19.10
2005,05,05,15,40,19.10
2005,05,05,15,41,19.10
2005,05,05,15,42,19.10
2005,05,05,15,43,19.10
2005,05,05,15,44,19.20
2005,05,05,15,45,19.40
2005,05,05,15,46,19.30
2005,05,05,15,47,19.10
2005,05,05,15,48,19.00
2005,05,05,15,49,18.90
2005,05,05,15,50,18.80
2005,05,05,15,51,18.70
2005,05,05,15,52,18.80
2005,05,05,15,53,18.70
2005,05,05,15,54,18.70
2005,05,05,15,55,18.90
2005,05,05,15,56,19.00
2005,05,05,15,57,19.10
2005,05,05,15,58,19.10
2005,05,05,15,59,19.10
2005,05,05,16,00,19.00
2005,05,05,16,01,19.00
2005,05,05,16,02,18.90
2005,05,05,16,03,18.90
2005,05,05,16,04,18.90
2005,05,05,16,05,18.90
2005,05,05,16,06,18.90
2005,05,05,16,07,18.90
2005,05,05,16,08,18.90
2005,05,05,16,09,19.00
2005,05,05,16,10,19.10
2005,05,05,16,11,19.10
2005,05,05,16,12,19.30
2005,05,05,16,13,19.50
2005,05,05,16,14,19.60
2005,05,05,16,15,19.70
2005,05,05,16,16,19.80
2005,05,05,16,17,20.00
2005,05,05,16,18,20.10
2005,05,05,16,19,19.90
2005,05,05,16,20,19.90
2005,05,05,16,21,19.90
2005,05,05,16,22,20.10
2005,05,05,16,23,20.40
2005,05,05,16,24,20.60
2005,05,05,16,25,20.90
2005,05,05,16,26,21.10
2005,05,05,16,27,21.40
2005,05,05,16,28,21.40
2005,05,05,16,29,21.40
2005,05,05,16,30,21.60
2005,05,05,16,31,21.50
2005,05,05,16,32,21.50
2005,05,05,16,33,21.60
2005,05,05,16,34,21.70
2005,05,05,16,35,21.60
2005,05,05,16,36,21.60
2005,05,05,16,37,21.60
2005,05,05,16,38,21.60
2005,05,05,16,39,21.70
2005,05,05,16,40,21.70
2005,05,05,16,41,21.60
2005,05,05,16,42,21.60
2005,05,05,16,43,21.70
2005,05,05,16,44,21.70
2005,05,05,16,45,21.50
2005,05,05,16,46,21.40
2005,05,05,16,47,21.40
2005,05,05,16,48,21.40
2005,05,05,16,49,21.20
2005,05,05,16,50,21.10
2005,05,05,16,51,21.10
2005,05,05,16,52,21.10
2005,05,05,16,53,20.90
2005,05,05,16,54,20.90
2005,05,05,16,55,21.00
2005,05,05,16,56,21.00
2005,05,05,16,57,21.10
2005,05,05,16,58,21.10
2005,05,05,16,59,21.20
2005,05,05,17,00,21.30
2005,05,05,17,01,21.30
2005,05,05,17,02,21.40
2005,05,05,17,03,21.40
2005,05,05,17,04,21.20
2005,05,05,17,05,21.00
2005,05,05,17,06,21.00
2005,05,05,17,07,21.20
2005,05,05,17,08,21.20
2005,05,05,17,09,21.20
2005,05,05,17,10,21.00
2005,05,05,17,11,21.00
2005,05,05,17,12,21.00
2005,05,05,17,13,21.00
2005,05,05,17,14,21.10
2005,05,05,17,15,21.30
2005,05,05,17,16,21.30
2005,05,05,17,17,21.40
2005,05,05,17,18,21.40
2005,05,05,17,19,21.40
2005,05,05,17,20,21.30
2005,05,05,17,21,21.30
2005,05,05,17,22,21.20
2005,05,05,17,23,21.30
2005,05,05,17,24,21.20
2005,05,05,17,25,21.30